Hourly Data Report for June 19, 2017

ATIKOKAN (AUT)
ONTARIO

48°45'40.000" N
91°37'41.000" W
389.30 m
6020LPQ
71747
WCH

Download Data

Hourly Data (June 2017)
Hourly Data Report for June 19, 2017
TIME
LST
Temp Definition
°C
Dew Point Definition
°C
Rel Hum Definition
%
Precip. Amount Definition
mm

Wind Dir Definition
10's deg

Wind Spd Definition
km/h
Visibility Definition
km
Stn Press Definition
kPa
Hmdx Definition


Wind Chill Definition


Weather Definition


00:00 12.6 9.8 83 0.0 31 4   96.06     LegendNANA
01:00 11.8 10.3 90 0.0 31 7   96.06     LegendNANA
02:00 11.8 10.2 90 0.0 31 3   96.07     LegendNANA
03:00 11.6 9.9 90 0.0 29 4   96.09     LegendNANA
04:00 10.7 9.0 89 0.0 28 4   96.12     LegendNANA
05:00 9.9 8.6 91 0.0 29 2   96.16     LegendNANA
06:00 11.2 8.7 85 0.2 28 6   96.20     LegendNANA
07:00 11.6 8.7 82 0.0 30 9   96.21     LegendNANA
08:00 12.2 7.9 75 0.0 30 11   96.23     LegendNANA
09:00 12.5 8.0 74 0.0 32 9   96.24     LegendNANA
10:00 12.6 7.9 73 0.0 30 9   96.26     LegendNANA
11:00 13.0 7.5 69 0.0 32 8   96.27     LegendNANA
12:00 13.0 7.9 71 0.0 31 9   96.30     LegendNANA
13:00 13.0 8.4 74 0.0 30 8   96.33     LegendNANA
14:00 12.4 8.6 78 0.0 33 10   96.35     LegendNANA
15:00 12.6 9.8 83 0.0 30 9   96.35     LegendNANA
16:00 12.3 10.1 87 0.2 29 8   96.38     LegendNANA
17:00 12.3 10.1 87 0.2 30 9   96.39     LegendNANA
18:00 12.3 10.1 87 0.3 30 9   96.41     LegendNANA
19:00 12.1 10.0 87 0.0 29 6   96.43     LegendNANA
20:00 11.8 9.8 87 0.0 29 6   96.43     LegendNANA
21:00 11.7 10.0 89 0.0 28 4   96.45     LegendNANA
22:00 11.8 10.3 90 0.0 26 2   96.44     LegendNANA
23:00 12.0 9.9 87 0.0 30 5   96.41     LegendNANA

Notes on Data Quality.

Legend

  • E = Estimated
  • M = Missing
  • NA = Not Available*
  • [empty] = Indicates an unobserved value
Date modified: